Voltar ao catálogo

PRSC-E03

AtivoCiênciaVLEO
NORAD 68835·PAYLOAD·🇨🇳 China

Lançado Apr 25, 2026 de Taiyuan Satellite Launch Center

Loading…

Próximas Passagens (próximas 24 horas)

TLE

AtualizadoSource: Space-Track

Época: Sep 14, 2026, 12:22 UTC

1 68835U 26092A   26257.51562781  .00001839  00000-0  12754-3 0  9999
2 68835  38.0012 282.7665 0003958 354.9956   5.0766 15.07049765 21436

Acompanhe PRSC-E03 em tempo real com AllMySat

Download on the App Store